Total_Precipitation_Accumulation
1.51 1.75 2.08 2.48 2.84 3.14 3.45 3.76 3.91 3.86 3.92 4.23 4.33 4.14 3.94 3.80 3.45 3.17 3.13 3.06 2.89 2.80 2.64 2.38 2.40 2.52 2.41 2.30 2.37 2.40 2.37 2.26 2.09 2.03 1.89 1.78 1.65 1.53 1.30 1.13 1.09 1.09 1.09
1.27 1.49 1.81 2.12 2.50 2.81 3.21 3.54 3.78 3.93 3.82 3.72 3.91 3.98 3.93 3.82 3.64 3.41 3.32 3.16 3.00 2.90 2.85 2.74 2.61 2.68 2.63 2.51 2.42 2.44 2.51 2.42 2.37 2.33 2.27 2.11 2.00 1.69 1.40 1.24 1.16 1.14 1.17
1.10 1.27 1.55 1.82 2.14 2.48 2.81 3.15 3.46 3.74 3.95 3.90 4.07 4.19 4.19 4.00 3.75 3.43 3.22 3.09 3.02 2.98 2.86 2.82 2.80 2.78 2.80 2.69 2.56 2.47 2.48 2.49 2.40 2.36 2.50 2.25 1.93 1.70 1.53 1.31 1.21 1.19 1.19
1.02 1.14 1.34 1.59 1.83 2.18 2.46 2.74 3.15 3.51 3.83 3.98 3.96 3.97 4.03 3.84 3.48 3.32 3.35 3.23 3.01 2.92 2.91 2.82 2.77 2.80 2.77 2.72 2.73 2.72 2.57 2.56 2.55 2.46 2.29 2.08 1.81 1.74 1.66 1.50 1.39 1.30 1.22
1.00 1.07 1.21 1.42 1.61 1.92 2.22 2.43 2.75 3.11 3.41 3.49 3.50 3.65 3.75 3.75 3.58 3.49 3.44 3.38 3.11 2.84 2.78 2.78 2.72 2.68 2.70 2.69 2.72 2.74 2.76 2.67 2.58 2.49 2.39 2.27 2.00 1.80 1.77 1.68 1.60 1.60 1.45
0.99 1.09 1.19 1.36 1.45 1.63 1.94 2.22 2.37 2.63 2.88 3.03 3.12 3.26 3.28 3.40 3.45 3.38 3.42 3.45 3.27 2.96 2.77 2.71 2.61 2.58 2.60 2.57 2.62 2.69 2.77 2.72 2.58 2.45 2.28 2.22 2.11 1.93 1.88 1.74 1.59 1.67 1.61
1.12 1.22 1.25 1.38 1.47 1.59 1.68 1.95 2.14 2.27 2.48 2.71 2.87 2.92 3.01 3.08 3.15 3.12 3.17 3.32 3.34 3.04 2.82 2.73 2.67 2.58 2.48 2.51 2.67 2.76 2.76 2.73 2.63 2.54 2.42 2.28 2.11 2.00 2.04 2.02 1.80 1.70 1.61
1.27 1.34 1.38 1.54 1.62 1.68 1.71 1.81 1.93 1.95 2.09 2.31 2.52 2.62 2.79 2.82 2.77 2.74 2.75 2.83 2.97 3.00 2.89 2.81 2.76 2.71 2.60 2.52 2.55 2.60 2.62 2.64 2.59 2.48 2.40 2.32 2.18 2.13 2.13 2.15 2.24 2.15 1.84
1.33 1.43 1.50 1.59 1.58 1.59 1.69 1.78 1.87 1.83 1.82 1.92 2.08 2.23 2.39 2.49 2.45 2.44 2.39 2.45 2.56 2.70 2.81 2.82 2.76 2.66 2.60 2.55 2.53 2.47 2.39 2.43 2.45 2.39 2.30 2.21 2.06 2.07 2.09 2.08 2.20 2.42 2.26
1.24 1.37 1.39 1.41 1.49 1.54 1.60 1.74 1.81 1.85 1.79 1.78 1.86 1.98 2.06 2.13 2.17 2.22 2.21 2.15 2.21 2.24 2.40 2.57 2.63 2.59 2.53 2.48 2.49 2.43 2.29 2.28 2.20 2.16 2.18 2.12 1.99 1.91 1.94 2.03 2.09 2.18 2.28
1.08 1.16 1.17 1.22 1.30 1.37 1.50 1.67 1.78 1.80 1.72 1.80 1.85 1.81 1.88 2.02 2.04 2.00 2.02 2.06 2.03 2.00 2.08 2.18 2.31 2.36 2.37 2.37 2.38 2.30 2.21 2.18 2.11 2.04 1.99 1.94 1.90 1.94 1.90 1.91 1.99 2.08 2.16
0.98 1.00 1.00 0.99 1.01 1.10 1.22 1.36 1.50 1.56 1.58 1.65 1.78 1.74 1.72 1.89 1.98 1.92 1.87 1.91 1.93 1.82 1.81 1.86 1.93 2.01 2.04 2.05 2.09 2.08 2.04 2.00 1.97 1.91 1.90 1.85 1.82 1.82 1.82 1.88 1.90 1.94 1.98
0.79 0.78 0.80 0.86 0.86 0.90 1.02 1.17 1.27 1.36 1.48 1.55 1.62 1.62 1.63 1.71 1.79 1.83 1.80 1.78 1.84 1.82 1.70 1.67 1.71 1.72 1.76 1.79 1.78 1.79 1.81 1.79 1.75 1.77 1.77 1.75 1.81 1.86 1.80 1.78 1.76 1.73 1.74
0.65 0.62 0.62 0.66 0.71 0.76 0.90 1.02 1.09 1.17 1.33 1.43 1.45 1.45 1.48 1.50 1.53 1.58 1.61 1.60 1.60 1.66 1.69 1.57 1.50 1.53 1.58 1.64 1.69 1.70 1.71 1.71 1.72 1.71 1.70 1.68 1.71 1.72 1.72 1.77 1.75 1.71 1.73
0.51 0.49 0.51 0.54 0.58 0.63 0.69 0.83 0.98 1.07 1.22 1.37 1.41 1.41 1.39 1.39 1.38 1.39 1.38 1.38 1.42 1.48 1.56 1.55 1.48 1.41 1.45 1.53 1.61 1.66 1.70 1.69 1.71 1.70 1.67 1.68 1.78 1.82 1.79 1.77 1.75 1.81 1.94
0.48 0.44 0.43 0.45 0.49 0.54 0.60 0.70 0.86 0.99 1.09 1.23 1.32 1.35 1.32 1.32 1.33 1.30 1.29 1.26 1.30 1.38 1.47 1.53 1.55 1.51 1.52 1.79 1.80 1.71 1.69 1.71 1.70 1.66 1.59 1.57 1.65 1.65 1.72 1.74 1.72 1.83 2.01
0.48 0.46 0.46 0.45 0.45 0.48 0.58 0.69 0.81 0.88 0.94 1.03 1.12 1.19 1.21 1.24 1.26 1.27 1.29 1.33 1.36 1.41 1.49 1.56 1.62 1.62 1.69 1.87 1.80 1.80 1.65 1.62 1.62 1.58 1.53 1.47 1.42 1.47 1.36 1.47 1.56 1.59 1.73
0.44 0.46 0.49 0.47 0.46 0.47 0.54 0.66 0.80 0.91 0.98 1.05 1.09 1.10 1.15 1.21 1.26 1.34 1.42 1.50 1.56 1.58 1.65 1.70 1.72 1.73 1.76 1.83 1.74 1.77 1.57 1.49 1.46 1.39 1.31 1.28 1.23 1.24 1.31 1.37 1.45 1.36 1.32
0.49 0.52 0.55 0.56 0.54 0.54 0.56 0.65 0.80 0.91 1.00 1.09 1.14 1.15 1.22 1.32 1.39 1.51 1.59 1.62 1.70 1.68 1.65 1.63 1.61 1.59 1.59 1.63 1.58 1.58 1.42 1.35 1.29 1.22 1.16 1.17 1.14 1.30 1.47 1.46 1.47 1.28 1.16
0.52 0.55 0.56 0.56 0.59 0.63 0.65 0.75 0.90 1.00 1.09 1.18 1.28 1.28 1.30 1.38 1.44 1.48 1.48 1.48 1.48 1.46 1.40 1.36 1.32 1.28 1.25 1.33 1.35 1.38 1.34 1.31 1.18 1.11 1.09 1.21 1.20 1.39 1.55 1.46 1.45 1.37 1.14
0.62 0.64 0.65 0.69 0.77 0.82 0.87 0.98 1.10 1.24 1.29 1.31 1.38 1.37 1.32 1.32 1.31 1.28 1.23 1.19 1.16 1.14 1.11 1.08 1.05 1.01 1.00 1.07 1.13 1.23 1.28 1.35 1.29 1.15 1.06 1.04 1.26 1.42 1.54 1.51 1.40 1.39 1.38
0.58 0.66 0.73 0.79 0.83 0.93 1.03 1.14 1.27 1.35 1.28 1.22 1.22 1.19 1.10 1.07 1.03 1.00 1.03 1.02 0.99 1.04 1.05 1.02 1.00 0.94 0.91 0.96 1.02 1.13 1.27 1.34 1.34 1.23 1.06 1.04 1.27 1.35 1.41 1.41 1.45 1.55 1.56
0.49 0.55 0.65 0.72 0.75 0.84 0.89 0.98 1.02 1.00 0.97 0.96 0.98 0.98 0.94 0.92 0.92 0.91 0.94 0.99 0.98 0.99 1.00 0.99 1.02 1.00 0.94 0.99 1.10 1.16 1.28 1.37 1.33 1.24 1.25 1.30 1.35 1.34 1.29 1.33 1.44 1.47 1.41
0.45 0.48 0.52 0.58 0.65 0.72 0.75 0.78 0.78 0.76 0.79 0.85 0.90 0.93 0.93 0.91 0.92 0.94 0.93 0.96 1.00 1.02 0.99 0.97 0.99 0.98 0.95 0.96 1.05 1.18 1.27 1.35 1.39 1.37 1.34 1.32 1.31 1.35 1.32 1.29 1.30 1.30 1.34
0.45 0.47 0.55 0.62 0.70 0.72 0.75 0.77 0.79 0.78 0.82 0.87 0.92 0.97 0.99 0.95 0.95 0.97 0.99 1.01 1.03 1.09 1.20 1.17 1.10 1.13 1.11 1.05 1.22 1.37 1.37 1.40 1.46 1.51 1.42 1.30 1.25 1.28 1.28 1.22 1.20 1.24 1.33
0.46 0.47 0.51 0.59 0.68 0.69 0.72 0.77 0.82 0.85 0.88 0.90 0.92 0.95 0.99 0.99 0.98 0.94 0.99 1.06 1.07 1.10 1.11 1.12 1.14 1.11 1.15 1.20 1.29 1.36 1.39 1.47 1.59 1.69 1.49 1.24 1.14 1.14 1.13 1.14 1.17 1.19 1.26